{"data":{"norad_id":61695,"epoch":"2026-05-25T00:29:37.557312Z","epoch_age_seconds":83429,"freshness":"FRESH","line1":"1 61695U 24195J   26145.02057358  .00001891  00000+0  20467-4 0  9997","line2":"2 61695  53.1592   9.8734 0000926  81.4973 278.6150 15.69703907 91022","mean_motion":15.69703907,"eccentricity":9.26e-5,"inclination_deg":53.1592,"raan_deg":9.8734,"arg_perigee_deg":81.4973,"mean_anomaly_deg":278.615,"bstar":2.0467e-5,"rev_number":9102,"period_min":91.737046303982,"perigee_km":359.12025851205,"apogee_km":360.36811410776,"semimajor_km":6737.8811863099,"source":"CELESTRAK","updated_at":"2026-05-25T13:38:19.441012Z"}}